OK1HRA-8 Weather Reports


time (UTC)temp
C
wind
direction
speed
KPH
gust
KPH
rain 1hr
cm
rain 24hr
cm
rain mn
cm
humidity
%
barometer
mb
20260905152729 21 -1 30.6 46.7 0.00 0.00 0.18 4 1003.3
20260905152208 21 270 27.4 40.2 0.00 0.00 0.18 4 1004.3
20260905151646 20 315 27.4 35.4 0.00 0.00 0.18 4 1003.2
20260905151630 20 315 25.7 40.2 0.00 0.00 0.18 4 1003.5
20260905151115 20 315 29.0 45.1 0.00 0.00 0.18 4 1003.7
20260905150554 20 315 29.0 43.5 0.00 0.00 0.18 4 1002.3
20260905150039 20 315 25.7 37.0 0.00 0.00 0.18 4 1002.2
20260905145517 20 270 22.5 30.6 0.00 0.00 0.18 4 1003.5
20260905145502 20 270 25.7 38.6 0.00 0.00 0.18 4 1003.4
20260905144941 20 337 32.2 45.1 0.00 0.00 0.18 4 1002.3
20260905144426 20 315 25.7 40.2 0.00 0.00 0.18 4 1002.6
20260905143910 21 270 27.4 38.6 0.00 0.00 0.18 4 1003.2
20260905143350 20 315 30.6 40.2 0.00 0.00 0.18 4 1001.7
20260905143333 20 315 30.6 48.3 0.00 0.00 0.18 4 1001.9
20260905142812 21 315 29.0 40.2 0.00 0.00 0.18 4 1003.1
20260905142257 20 -1 32.2 48.3 0.00 0.00 0.18 4 1001.9
20260905141742 20 315 30.6 48.3 0.00 0.00 0.18 4 1001.9
20260905141221 21 270 24.1 33.8 0.00 0.00 0.18 4 1002.0
20260905141205 21 315 35.4 53.1 0.00 0.00 0.18 4 1002.0
20260905140644 21 -1 29.0 48.3 0.00 0.00 0.18 4 1002.2
20260905140129 21 270 27.4 43.5 0.00 0.00 0.18 4 1003.2
20260905135614 21 -1 30.6 41.8 0.00 0.00 0.18 4 1003.1
20260905135053 21 315 33.8 48.3 0.00 0.00 0.18 4 1004.1
20260905135037 21 -1 27.4 45.1 0.00 0.00 0.18 4 1003.4
20260905134516 21 -1 30.6 48.3 0.00 0.00 0.18 4 1002.5
20260905134001 21 -1 25.7 49.9 0.00 0.00 0.18 4 1003.8
20260905133446 21 270 25.7 38.6 0.00 0.00 0.18 4 1003.6
20260905132925 20 270 19.3 25.7 0.00 0.00 0.18 4 1002.8
20260905132909 20 -1 27.4 43.5 0.00 0.00 0.18 4 1002.8
20260905132348 21 315 24.1 38.6 0.00 0.00 0.18 5 1003.2
20260905131833 20 270 29.0 43.5 0.00 0.00 0.18 4 1003.0
20260905131318 21 270 27.4 46.7 0.00 0.00 0.18 4 1002.8
20260905130757 20 315 19.3 27.4 0.00 0.00 0.18 5 1001.1
20260905130734 20 315 27.4 41.8 0.00 0.00 0.18 4 1001.9
20260905130219 21 315 27.4 40.2 0.00 0.00 0.18 5 1002.7
20260905125704 21 315 27.4 46.7 0.00 0.00 0.18 4 1003.0
20260905125143 21 315 30.6 46.7 0.00 0.00 0.18 4 1003.0
20260905125118 21 270 27.4 45.1 0.00 0.00 0.18 4 1002.8
20260905124603 21 270 24.1 35.4 0.00 0.00 0.18 4 1003.4
20260905124048 20 315 27.4 40.2 0.00 0.00 0.18 4 1002.6
20260905123527 20 270 27.4 37.0 0.00 0.00 0.18 4 1001.1
20260905123503 20 315 27.4 46.7 0.00 0.00 0.18 4 1000.8
20260905122948 20 315 22.5 37.0 0.00 0.00 0.18 4 1003.6
20260905122433 19 270 24.1 33.8 0.00 0.00 0.18 5 1002.8
20260905121912 18 270 19.3 27.4 0.00 0.00 0.18 5 1002.3
20260905121855 19 315 22.5 40.2 0.00 0.00 0.18 5 1002.0
20260905121334 20 270 20.9 33.8 0.00 0.00 0.18 5 1003.3
20260905120819 18 -1 24.1 43.5 0.00 0.00 0.18 5 1002.0
20260905120304 19 -1 25.7 40.2 0.00 0.00 0.18 5 1004.1
20260905115743 19 270 24.1 30.6 0.00 0.00 0.18 5 1001.8
20260905115727 19 -1 24.1 37.0 0.00 0.00 0.18 5 1002.1
20260905115206 19 270 25.7 45.1 0.00 0.00 0.18 5 1003.5
20260905114651 19 270 27.4 41.8 0.00 0.00 0.18 5 1003.1
20260905114136 20 270 25.7 46.7 0.00 0.00 0.18 5 1003.8
20260905113615 20 315 20.9 32.2 0.00 0.00 0.18 5 1001.6
20260905113600 20 315 30.6 43.5 0.00 0.00 0.18 5 1002.0
20260905113045 19 270 30.6 49.9 0.00 0.00 0.18 5 1002.9
20260905112524 18 -1 30.6 48.3 0.00 0.00 0.18 5 1002.6
20260905112008 18 270 29.0 48.3 0.00 0.00 0.18 5 1001.8
20260905111448 19 270 20.9 27.4 0.00 0.00 0.18 5 1002.8
20260905111432 18 315 24.1 40.2 0.00 0.00 0.18 5 1002.4
20260905110911 19 270 29.0 53.1 0.00 0.00 0.18 5 1002.4
20260905110356 19 -1 30.6 49.9 0.00 0.00 0.18 5 1000.9
20260905105841 19 315 24.1 41.8 0.00 0.00 0.18 5 1003.0
20260905105320 18 270 22.5 32.2 0.00 0.00 0.18 5 1002.8
20260905105305 18 -1 25.7 51.5 0.00 0.00 0.18 5 1002.0
20260905104741 20 -1 27.4 46.7 0.00 0.00 0.18 5 1003.2
20260905104226 19 -1 29.0 45.1 0.00 0.00 0.18 5 1002.9
20260905103705 19 270 14.5 19.3 0.00 0.00 0.18 5 1003.7
20260905103648 19 -1 29.0 53.1 0.00 0.00 0.18 5 1002.8
20260905103127 19 225 19.3 33.8 0.00 0.00 0.18 5 1002.7
20260905102612 19 -1 24.1 41.8 0.00 0.00 0.18 5 1003.2
20260905102057 19 270 25.7 43.5 0.00 0.00 0.18 5 1003.8
20260905101536 19 -1 20.9 29.0 0.00 0.00 0.18 5 1002.8
20260905101513 19 -1 25.7 40.2 0.00 0.00 0.18 5 1003.4
20260905100958 18 -1 30.6 53.1 0.00 0.00 0.18 5 1001.6
20260905100442 18 270 22.5 40.2 0.00 0.00 0.18 5 1001.2
20260905095921 18 270 20.9 27.4 0.00 0.00 0.18 5 1001.2
20260905095905 18 292 29.0 40.2 0.00 0.00 0.18 5 1000.8
20260905095344 17 247 24.1 40.2 0.00 0.00 0.18 6 1002.4
20260905094829 17 -1 27.4 45.1 0.00 0.00 0.18 6 1001.4
20260905094314 17 270 24.1 40.2 0.00 0.00 0.18 6 1000.5
20260905093753 18 270 16.1 20.9 0.00 0.00 0.18 6 1002.3
20260905093737 18 270 25.7 38.6 0.00 0.00 0.18 6 1001.9
20260905093222 17 270 25.7 43.5 0.00 0.00 0.18 6 1002.8
20260905092701 17 270 17.7 32.2 0.00 0.00 0.18 6 1003.0
20260905092146 17 270 20.9 38.6 0.00 0.00 0.18 6 1003.0
20260905091625 17 270 14.5 19.3 0.00 0.00 0.18 6 1004.1
20260905091609 17 247 22.5 37.0 0.00 0.00 0.18 6 1003.9
20260905091048 16 315 22.5 30.6 0.00 0.00 0.18 6 1002.4
20260905090533 17 292 17.7 37.0 0.00 0.00 0.18 6 1002.9
20260905090018 17 247 22.5 41.8 0.00 0.00 0.18 6 1004.2
20260905085457 17 247 19.3 30.6 0.00 0.00 0.18 7 1005.3
20260905085433 17 292 24.1 37.0 0.00 0.00 0.18 7 1004.1
20260905084918 16 247 24.1 38.6 0.00 0.00 0.18 7 1003.9
20260905084403 16 225 25.7 37.0 0.00 0.00 0.18 7 1004.7
20260905083842 16 270 17.7 27.4 0.00 0.00 0.18 7 1005.2
20260905083818 16 247 22.5 41.8 0.00 0.00 0.18 7 1004.5
20260905083303 16 270 29.0 46.7 0.00 0.00 0.18 7 1004.7
20260905082748 16 270 22.5 38.6 0.00 0.00 0.18 7 1002.8
20260905082227 16 270 20.9 27.4 0.00 0.00 0.18 7 1002.8
20260905082210 16 247 24.1 40.2 0.00 0.00 0.18 7 1004.2
20260905081649 16 247 20.9 35.4 0.00 0.00 0.18 7 1003.6
20260905081134 16 270 20.9 32.2 0.00 0.00 0.18 7 1003.7
20260905080619 16 225 17.7 27.4 0.00 0.00 0.18 7 1003.8
20260905080058 16 247 20.9 29.0 0.00 0.00 0.18 7 1003.5
20260905080042 16 270 20.9 32.2 0.00 0.00 0.18 8 1003.3
20260905075521 15 270 19.3 30.6 0.00 0.00 0.18 7 1004.1
20260905075006 15 247 17.7 29.0 0.00 0.00 0.18 8 1006.2
20260905074451 15 270 17.7 29.0 0.00 0.00 0.18 8 1005.1
20260905073930 15 247 14.5 22.5 0.00 0.00 0.18 8 1005.8
20260905073906 15 247 17.7 27.4 0.00 0.00 0.18 8 1005.7
20260905073351 15 247 19.3 32.2 0.00 0.00 0.18 8 1005.1
20260905072836 14 247 19.3 30.6 0.00 0.00 0.18 8 1005.8
20260905072315 14 247 12.9 16.1 0.00 0.00 0.18 8 1006.1
20260905072258 14 225 19.3 30.6 0.00 0.00 0.18 8 1006.0
20260905071737 14 270 17.7 25.7 0.00 0.00 0.18 8 1006.0
20260905071222 14 247 19.3 25.7 0.00 0.00 0.18 8 1005.9
20260905070707 14 247 17.7 27.4 0.00 0.00 0.18 9 1007.7
20260905070146 13 247 14.5 19.3 0.00 0.00 0.18 9 1007.0
20260905070130 13 270 19.3 32.2 0.00 0.00 0.18 9 1006.4
20260905065609 13 247 19.3 30.6 0.00 0.00 0.18 9 1006.6
20260905065054 13 270 17.7 24.1 0.00 0.00 0.18 9 1007.4
20260905064539 13 247 19.3 32.2 0.00 0.00 0.18 9 1007.8
20260905064018 13 270 17.7 22.5 0.00 0.00 0.18 9 1006.6
20260905063955 13 270 19.3 27.4 0.00 0.00 0.18 9 1006.6
20260905063440 13 270 22.5 33.8 0.00 0.00 0.18 9 1006.7
20260905062925 13 225 19.3 30.6 0.00 0.00 0.18 9 1007.7
20260905062404 13 247 17.7 24.1 0.00 0.00 0.18 9 1009.2
20260905062347 13 270 22.5 30.6 0.00 0.00 0.18 9 1007.5
20260905061832 13 270 19.3 29.0 0.00 0.00 0.18 9 1008.6
20260905061311 12 247 20.9 32.2 0.00 0.00 0.18 9 1008.3
20260905060757 13 247 16.1 27.4 0.00 0.00 0.18 9 1008.2
20260905060235 12 247 14.5 19.3 0.00 0.00 0.18 9 1008.8
20260905060219 12 247 19.3 29.0 0.00 0.00 0.18 9 1008.6
20260905055658 13 225 17.7 29.0 0.00 0.00 0.18 9 1010.0
20260905055143 12 247 16.1 25.7 0.00 0.00 0.18 9 1007.1
20260905054628 12 225 19.3 27.4 0.00 0.00 0.18 9 1008.2
20260905054107 12 225 14.5 20.9 0.00 0.00 0.18 9 1008.0
20260905054051 12 247 16.1 25.7 0.00 0.00 0.18 9 1006.8
20260905053529 12 202 14.5 22.5 0.00 0.00 0.18 8 1006.5
20260905053014 12 202 14.5 22.5 0.00 0.00 0.18 8 1005.3
20260905052459 12 225 14.5 25.7 0.00 0.00 0.18 8 1005.3
20260905051938 12 247 11.3 19.3 0.00 0.00 0.18 9 1005.5
20260905051922 12 225 16.1 24.1 0.00 0.00 0.18 9 1005.4
20260905051407 12 247 14.5 24.1 0.00 0.00 0.18 9 1004.7
20260905050846 12 247 14.5 25.7 0.00 0.00 0.18 9 1005.5
20260905050331 12 270 12.9 22.5 0.00 0.00 0.18 9 1006.9
20260905045810 12 225 11.3 16.1 0.00 0.00 0.18 9 1008.3
20260905045754 12 247 14.5 24.1 0.00 0.00 0.18 9 1008.2
20260905045233 12 247 19.3 29.0 0.00 0.00 0.18 9 1009.2
20260905044718 12 247 16.1 27.4 0.00 0.00 0.18 10 1007.5
20260905044204 12 270 16.1 24.1 0.00 0.00 0.18 10 1009.3
20260905043643 12 225 17.7 25.7 0.00 0.00 0.18 9 1006.5
20260905043627 12 247 27.4 40.2 0.00 0.00 0.18 9 1006.8
20260905043106 12 225 20.9 29.0 0.00 0.00 0.18 9 1006.9
20260905042551 12 225 17.7 30.6 0.00 0.00 0.18 9 1006.7
20260905042036 12 270 17.7 29.0 0.00 0.00 0.18 9 1006.7
20260905041515 12 225 12.9 19.3 0.00 0.00 0.15 9 1007.4
20260905041452 12 225 19.3 29.0 0.00 0.00 0.15 9 1006.8
20260905040937 12 225 17.7 24.1 0.00 0.00 0.15 9 1006.6
20260905040422 12 225 19.3 29.0 0.00 0.00 0.15 9 1006.7
20260905035901 12 225 12.9 19.3 0.00 0.00 0.15 9 1006.5
20260905035836 12 247 19.3 29.0 0.00 0.00 0.15 9 1006.2
20260905035321 12 180 22.5 32.2 0.00 0.00 0.15 9 1007.5
20260905034806 12 202 20.9 29.0 0.00 0.00 0.15 9 1006.9
20260905034245 12 225 16.1 19.3 0.00 0.00 0.15 9 1008.6
20260905034221 12 247 14.5 27.4 0.00 0.00 0.15 9 1008.4
20260905033706 12 225 14.5 22.5 0.00 0.00 0.15 9 1007.0
20260905033151 12 225 17.7 30.6 0.00 0.00 0.13 9 1007.2
20260905032630 12 225 14.5 17.7 0.00 0.00 0.13 9 1007.1
20260905032613 12 225 16.1 25.7 0.00 0.00 0.15 9 1007.1
20260905032058 12 202 14.5 24.1 0.00 0.00 0.13 8 1006.5
20260905031537 12 225 14.5 25.7 0.00 0.00 0.13 8 1006.5
20260905031022 13 270 12.9 22.5 0.00 0.00 0.10 8 1005.5
20260905030501 13 270 16.1 20.9 0.00 0.00 0.08 8 1004.2
20260905030444 13 270 16.1 25.7 0.00 0.00 0.08 8 1004.4
20260905025923 13 270 14.5 22.5 0.00 0.00 0.08 8 1003.7
20260905025408 13 270 11.3 17.7 0.00 0.00 0.05 7 1003.0
20260905024847 13 270 11.3 14.5 0.00 0.00 0.05 8 1003.1
20260905024830 13 270 8.0 17.7 0.00 0.00 0.05 8 1003.3
20260905024309 13 247 8.0 12.9 0.00 0.00 0.05 8 1004.4
20260905023754 13 270 11.3 17.7 0.00 0.00 0.05 8 1003.8
20260905023239 13 270 12.9 17.7 0.00 0.00 0.05 8 1002.2
20260905022718 14 270 8.0 11.3 0.00 0.00 0.03 8 1002.8
20260905022702 14 315 12.9 20.9 0.00 0.00 0.03 8 1002.7
20260905022141 14 292 11.3 17.7 0.00 0.00 0.03 8 1004.6
20260905021626 14 315 8.0 12.9 0.00 0.00 0.03 8 1005.0
20260905021111 14 315 8.0 11.3 0.00 0.00 0.03 8 1004.4
20260905020550 14 315 0.0 0.0 0.00 0.00 0.03 8 1004.1
20260905020534 14 315 6.4 12.9 0.00 0.00 0.05 8 1004.0
20260905020019 14 337 9.7 16.1 0.00 0.00 0.03 8 1004.5
20260905015458 15 315 16.1 24.1 0.00 0.00 0.03 8 1004.3
20260905014943 15 315 6.4 12.9 0.00 0.00 0.03 8 1003.9
20260905014422 15 315 9.7 11.3 0.00 0.00 0.03 7 1002.7
20260905014406 15 315 9.7 12.9 0.00 0.00 0.03 8 1002.7
20260905013845 15 292 12.9 22.5 0.00 0.00 0.03 8 1003.6
20260905013330 15 315 8.0 16.1 0.00 0.00 0.03 8 1003.1
20260905012815 15 315 9.7 17.7 0.00 0.00 0.03 8 1003.1
20260905012254 15 270 12.9 17.7 0.00 0.00 0.03 7 1003.5
20260905012238 15 270 9.7 19.3 0.00 0.00 0.03 7 1003.5
20260905011717 15 270 6.4 11.3 0.00 0.00 0.03 7 1001.6
20260905011202 15 270 4.8 8.0 0.00 0.00 0.03 7 1000.3
20260905010647 15 247 0.0 4.8 0.00 0.00 0.00 6 1000.3
20260905010126 15 225 0.0 0.0 0.00 0.00 0.00 6 1002.1
20260905010110 15 225 0.0 0.0 0.00 0.00 0.00 6 1001.9
20260905005549 15 270 6.4 9.7 0.00 0.00 0.00 6 1000.7
20260905005034 16 270 4.8 6.4 0.00 0.00 0.00 6 1000.9
20260905004519 16 247 6.4 8.0 0.00 0.00 0.00 7 1001.5
20260905003958 16 315 6.4 8.0 0.00 0.00 0.00 7 1001.2
20260905003942 16 292 6.4 12.9 0.00 0.00 0.00 7 1001.3
20260905003427 16 337 11.3 20.9 0.00 0.00 0.00 7 1001.1
20260905002907 16 315 8.0 12.9 0.00 0.00 0.00 7 1000.4
20260905002351 16 292 8.0 11.3 0.00 0.00 0.00 7 1000.8
20260905001830 16 270 9.7 12.9 0.00 0.00 0.00 7 1000.9
20260905001815 16 315 9.7 22.5 0.00 0.00 0.00 7 1001.1
20260905001254 16 315 16.1 25.7 0.00 0.00 0.00 7 1000.6
20260905000738 16 315 16.1 27.4 0.00 0.00 0.00 7 1000.3
20260905000226 16 292 17.7 30.6 0.00 0.00 0.00 7 1000.4
20260904235702 16 337 19.3 27.4 0.00 0.00 0.00 7 1000.5
20260904235646 16 315 19.3 29.0 0.00 0.00 0.00 7 1000.4
20260904235125 16 315 27.4 45.1 0.00 0.00 0.00 7 999.9
20260904234610 16 -1 32.2 48.3 0.00 0.00 0.00 7 999.5
20260904234055 16 315 29.0 48.3 0.00 0.00 0.00 7 998.8
20260904233534 16 -1 29.0 40.2 0.00 0.00 0.00 7 998.7
20260904233510 17 337 33.8 51.5 0.00 0.00 0.00 7 998.8
20260904232954 17 315 40.2 67.6 0.00 0.00 0.00 7 998.3
20260904232439 17 0 37.0 56.3 0.00 0.00 0.00 7 999.1
20260904231918 17 337 25.7 37.0 0.00 0.00 0.00 7 1000.6
20260904231856 17 0 30.6 54.7 0.00 0.00 0.00 7 1000.6
20260904231341 17 315 32.2 51.5 0.00 0.00 0.00 7 1000.3
20260904230826 17 0 27.4 45.1 0.00 0.00 0.00 7 1000.6
20260904230303 17 292 16.1 25.7 0.00 0.00 0.00 7 1000.3
20260904230247 17 0 27.4 46.7 0.00 0.00 0.00 7 1000.5
20260904225726 17 315 27.4 41.8 0.00 0.00 0.00 7 1000.2
20260904225211 17 337 22.5 38.6 0.00 0.00 0.00 7 1000.6
20260904224656 17 337 19.3 40.2 0.00 0.00 0.00 7 1000.4
20260904224135 17 45 20.9 30.6 0.00 0.00 0.00 7 999.9
20260904224111 17 0 22.5 43.5 0.00 0.00 0.00 7 1000.1
20260904223556 17 45 25.7 51.5 0.00 0.00 0.00 7 999.5
20260904223041 18 0 32.2 53.1 0.00 0.00 0.00 7 998.4
20260904222520 20 337 22.5 35.4 0.00 0.00 0.00 7 998.9
20260904222456 20 0 35.4 62.8 0.00 0.00 0.00 7 998.7
20260904221941 21 315 29.0 56.3 0.00 0.00 0.00 6 997.8
20260904221426 21 270 16.1 33.8 0.00 0.00 0.00 6 997.9
20260904220905 22 270 6.4 9.7 0.00 0.00 0.00 6 998.0
20260904220848 22 270 14.5 25.7 0.00 0.00 0.00 6 997.8
20260904220327 22 270 12.9 22.5 0.00 0.00 0.00 6 997.8
20260904215812 22 270 11.3 19.3 0.00 0.00 0.00 6 997.2
20260904215257 22 270 16.1 24.1 0.00 0.00 0.00 6 997.3
20260904214736 22 270 16.1 22.5 0.00 0.00 0.00 6 996.8
20260904214720 22 270 16.1 25.7 0.00 0.00 0.00 6 996.8
20260904214159 22 270 16.1 27.4 0.00 0.00 0.00 6 997.0
20260904213644 22 270 16.1 27.4 0.00 0.00 0.00 6 997.1
20260904213129 22 270 16.1 30.6 0.00 0.00 0.00 6 996.9
20260904212608 22 270 14.5 20.9 0.00 0.00 0.00 6 997.1
20260904212552 22 270 16.1 27.4 0.00 0.00 0.00 6 996.9
20260904212031 22 270 14.5 24.1 0.00 0.00 0.00 6 997.2
20260904211516 22 270 16.1 25.7 0.00 0.00 0.00 6 997.0
20260904211001 22 225 14.5 24.1 0.00 0.00 0.00 6 997.1
20260904210440 22 270 14.5 17.7 0.00 0.00 0.00 6 996.9
20260904210417 22 270 17.7 29.0 0.00 0.00 0.00 6 996.9
20260904205902 22 270 16.1 25.7 0.00 0.00 0.00 6 996.8
20260904205347 22 225 16.1 27.4 0.00 0.00 0.00 6 996.6
20260904204826 22 270 17.7 24.1 0.00 0.00 0.00 6 996.6
20260904204801 22 247 16.1 29.0 0.00 0.00 0.00 5 996.8
20260904204246 22 270 12.9 20.9 0.00 0.00 0.00 5 996.7
20260904203731 22 270 12.9 25.7 0.00 0.00 0.00 6 996.7
20260904203210 22 270 12.9 17.7 0.00 0.00 0.00 6 996.4
20260904203146 22 270 12.9 22.5 0.00 0.00 0.00 5 996.8
20260904202631 22 270 9.7 16.1 0.00 0.00 0.00 5 996.7
20260904202116 22 270 12.9 29.0 0.00 0.00 0.00 5 996.9
20260904201555 23 247 11.3 14.5 0.00 0.00 0.00 5 997.0
20260904201538 23 225 14.5 27.4 0.00 0.00 0.00 5 996.9
20260904201017 23 270 14.5 24.1 0.00 0.00 0.00 5 996.4
20260904200502 23 270 14.5 25.7 0.00 0.00 0.00 5 996.5
20260904195947 23 225 12.9 22.5 0.00 0.00 0.00 5 996.6
20260904195426 23 270 9.7 12.9 0.00 0.00 0.00 5 996.9
20260904195406 23 270 12.9 20.9 0.00 0.00 0.00 5 996.7
20260904194852 23 270 9.7 17.7 0.00 0.00 0.00 5 996.6
20260904194336 23 270 9.7 19.3 0.00 0.00 0.00 5 997.0
20260904193810 23 270 8.0 11.3 0.00 0.00 0.00 5 997.3
20260904193755 23 270 9.7 17.7 0.00 0.00 0.00 5 997.0
20260904193234 23 270 12.9 22.5 0.00 0.00 0.00 5 996.5
20260904192719 23 270 14.5 24.1 0.00 0.00 0.00 5 996.8
20260904192203 23 270 12.9 24.1 0.00 0.00 0.00 5 997.1
20260904191643 23 270 6.4 9.7 0.00 0.00 0.00 5 997.0
20260904191627 23 270 11.3 20.9 0.00 0.00 0.00 5 996.8
20260904191106 23 270 12.9 22.5 0.00 0.00 0.00 5 996.4
20260904190551 23 270 12.9 25.7 0.00 0.00 0.00 5 996.6
20260904190036 23 270 14.5 24.1 0.00 0.00 0.00 5 996.5
20260904185515 23 270 11.3 17.7 0.00 0.00 0.00 5 996.8
20260904185459 23 270 14.5 24.1 0.00 0.00 0.00 5 996.8
20260904184938 23 270 12.9 19.3 0.00 0.00 0.00 5 996.5
20260904184423 23 225 9.7 16.1 0.00 0.00 0.00 5 996.2
20260904183908 24 225 12.9 20.9 0.00 0.00 0.00 5 996.8
20260904183347 24 270 16.1 22.5 0.00 0.00 0.00 5 996.3
20260904183331 24 225 17.7 25.7 0.00 0.00 0.00 5 996.4
20260904182810 24 -1 16.1 27.4 0.00 0.00 0.00 5 995.5
20260904182255 24 225 20.9 29.0 0.00 0.00 0.00 5 996.5
20260904181740 24 225 17.7 30.6 0.00 0.00 0.00 5 996.2
20260904181219 25 270 14.5 19.3 0.00 0.00 0.00 5 996.4
20260904181155 25 225 20.9 33.8 0.00 0.00 0.00 5 996.0
20260904180640 25 -1 17.7 30.6 0.00 0.00 0.00 5 995.8
20260904180125 25 -1 16.1 24.1 0.00 0.00 0.00 5 996.0
20260904175604 25 225 14.5 22.5 0.00 0.00 0.00 5 996.1
20260904175547 25 -1 19.3 27.4 0.00 0.00 0.00 5 996.0
20260904175026 25 -1 20.9 41.8 0.00 0.00 0.00 5 996.0
20260904174511 25 -1 19.3 27.4 0.00 0.00 0.00 5 996.2
20260904173956 25 -1 16.1 25.7 0.00 0.00 0.00 5 995.8
20260904173435 25 270 12.9 17.7 0.00 0.00 0.00 5 996.2
20260904173419 25 -1 14.5 25.7 0.00 0.00 0.00 5 996.3
20260904172858 25 -1 16.1 24.1 0.00 0.00 0.00 5 996.2
20260904172343 25 -1 17.7 29.0 0.00 0.00 0.00 5 996.5
20260904171828 25 -1 19.3 35.4 0.00 0.00 0.00 5 996.2
20260904171307 25 270 16.1 22.5 0.00 0.00 0.00 5 996.3
20260904171250 25 270 19.3 29.0 0.00 0.00 0.00 5 996.0
20260904170729 25 270 22.5 37.0 0.00 0.00 0.00 5 996.1
20260904170214 26 270 24.1 41.8 0.00 0.00 0.00 4 996.2
20260904165653 26 270 29.0 41.8 0.00 0.00 0.00 4 996.5
20260904165636 26 292 24.1 41.8 0.00 0.00 0.00 4 996.6
20260904165115 26 292 20.9 37.0 0.00 0.00 0.00 4 996.4
20260904164600 26 -1 24.1 35.4 0.00 0.00 0.00 4 996.0
20260904164045 26 270 19.3 29.0 0.00 0.00 0.00 4 996.3
20260904163524 26 247 24.1 33.8 0.00 0.00 0.00 4 996.6
20260904163500 26 247 17.7 30.6 0.00 0.00 0.00 4 996.0
20260904162945 26 270 19.3 35.4 0.00 0.00 0.00 4 996.6
20260904162430 26 270 22.5 35.4 0.00 0.00 0.00 4 996.3
20260904161909 26 247 25.7 37.0 0.00 0.00 0.00 4 996.3
20260904161845 26 270 27.4 40.2 0.00 0.00 0.00 4 995.9
20260904161330 26 225 27.4 45.1 0.00 0.00 0.00 4 996.2
20260904160815 26 225 30.6 46.7 0.00 0.00 0.00 5 996.0
20260904160254 26 -1 24.1 33.8 0.00 0.00 0.00 4 996.2
20260904160229 26 -1 27.4 40.2 0.00 0.00 0.00 4 996.1
20260904155714 26 -1 22.5 40.2 0.00 0.00 0.00 4 995.6
20260904155159 26 -1 30.6 54.7 0.00 0.00 0.00 5 996.3
20260904154638 26 225 25.7 35.4 0.00 0.00 0.00 4 996.4
20260904154622 26 247 27.4 45.1 0.00 0.00 0.00 4 995.5
20260904154101 26 -1 29.0 48.3 0.00 0.00 0.00 4 996.3
20260904153545 26 270 32.2 48.3 0.00 0.00 0.00 5 995.5